Weather History for KCMX - February, 2014

Change the Weather History Date:

Saturday, February 1, 2014

  Actual Average Record
Temperature  
Mean Temperature 2 °F -  
Max Temperature 10 °F 20 °F 42 °F (1970)
Min Temperature -5 °F 7 °F -22 °F (1959)
Degree Days  
Heating Degree Days 62    
Moisture  
Dew Point 0 °F    
Average Humidity 78    
Maximum Humidity 85    
Minimum Humidity 66    
Precipitation  
Precipitation 0.00 in - - ()
Sea Level Pressure  
Sea Level Pressure 29.95 in    
Wind  
Wind Speed 5 mph (West)    
Max Wind Speed 14 mph    
Max Gust Speed -    
Visibility 5 miles    
Events Snow    
Averages and records for this station are not official NWS values.
T = Trace of Precipitation, MM = Missing Value Source: NWS Daily Summary

Daily Weather History Graph

Daily Weather History Graph

Search for Another Location

Airport or City:

Trip Planner

Search our weather history database for the weather conditions in past years. The results will help you decide how hot, cold, wet, or windy it might be!

Date:

Astronomy

Feb. 01, 2014 Rise Set
Actual Time 8:19 AM EST 5:56 PM EST
Civil Twilight 7:46 AM EST 6:29 PM EST
Nautical Twilight 7:09 AM EST 7:05 PM EST
Astronomical Twilight 6:34 AM EST 7:41 PM EST
Moon 8:57 AM EST (2/1) 8:45 PM EST (2/1)
Length of Visible Light 10h 42m
Length of Day
9h 37m
Waxing Crescent, 5% of the Moon is Illuminated
Feb 1
Waxing Crescent
Feb 6
First Quarter
Feb 14
Full
Feb 22
Last Quarter
Mar 1
New

Hourly Weather History & Observations

Time (EST) Temp. Windchill Dew Point Humidity Pressure Visibility Wind Dir Wind Speed Gust Speed Precip Events Conditions
12:53 AM -0.9 °F -15.3 °F -9.9 °F 66% 30.05 in 10.0 mi WSW 8.1 mph - N/A   Clear
1:53 AM -0.0 °F -11.6 °F -9.0 °F 66% 30.05 in 10.0 mi SW 5.8 mph - N/A   Mostly Cloudy
2:08 AM -2.2 °F -14.2 °F -9.4 °F 71% 29.96 in 10.0 mi SSW 5.8 mph - N/A   Scattered Clouds
2:53 AM -4.0 °F -16.3 °F -11.0 °F 72% 30.06 in 10.0 mi SW 5.8 mph - N/A   Clear
3:35 AM -4.0 °F - -11.2 °F 71% 29.96 in 10.0 mi Calm Calm - N/A   Mostly Cloudy
3:53 AM -4.0 °F -12.4 °F -11.0 °F 72% 30.06 in 10.0 mi SW 3.5 mph - N/A   Overcast
4:53 AM -5.1 °F - -11.0 °F 76% 30.04 in 10.0 mi Calm Calm - N/A   Overcast
5:53 AM -2.9 °F -15.0 °F -9.0 °F 75% 30.02 in 10.0 mi West 5.8 mph - N/A   Overcast
6:51 AM -4.0 °F -17.8 °F -11.2 °F 71% 29.95 in 10.0 mi SSW 6.9 mph - N/A   Overcast
6:53 AM -4.0 °F -17.8 °F -11.0 °F 72% 30.05 in 10.0 mi SSW 6.9 mph - N/A   Overcast
7:19 AM -4.0 °F -14.6 °F -9.4 °F 78% 29.95 in 10.0 mi SW 4.6 mph - N/A   Overcast
7:53 AM -5.1 °F -15.8 °F -11.9 °F 72% 30.02 in 10.0 mi North 4.6 mph - N/A   Overcast
8:53 AM -4.0 °F -16.3 °F -9.9 °F 76% 30.02 in 10.0 mi SSW 5.8 mph - N/A   Overcast
9:53 AM -0.0 °F -7.9 °F -7.1 °F 72% 30.02 in 10.0 mi West 3.5 mph - N/A   Overcast
10:53 AM 3.0 °F -4.4 °F -4.0 °F 73% 30.00 in 10.0 mi SE 3.5 mph - N/A   Overcast
11:53 AM 5.0 °F - -2.9 °F 70% 30.00 in 10.0 mi Calm Calm - N/A   Overcast
12:53 PM 8.1 °F - -0.9 °F 67% 29.97 in 10.0 mi Calm Calm - N/A   Overcast
1:53 PM 10.0 °F - 1.9 °F 70% 29.96 in 3.0 mi Calm Calm - 0.00 in Snow Light Snow
2:04 PM 10.4 °F - 3.2 °F 73% 29.87 in 2.5 mi Calm Calm - 0.00 in Snow Light Snow
2:18 PM 10.4 °F - 3.2 °F 73% 29.87 in 1.8 mi Calm Calm - 0.00 in Snow Light Snow
2:40 PM 10.4 °F 4.0 °F 3.2 °F 73% 29.87 in 2.5 mi South 3.5 mph - 0.00 in Snow Light Snow
2:53 PM 10.0 °F 3.6 °F 3.9 °F 76% 29.96 in 2.0 mi South 3.5 mph - 0.00 in Snow Light Snow
3:02 PM 10.4 °F 4.0 °F 5.0 °F 79% 29.87 in 1.8 mi South 3.5 mph - 0.00 in Snow Light Snow
3:14 PM 10.4 °F - 5.0 °F 79% 29.87 in 1.5 mi Calm Calm - 0.00 in Snow Light Snow
3:24 PM 10.4 °F - 5.0 °F 79% 29.87 in 1.5 mi Calm Calm - 0.00 in Snow Light Snow
3:49 PM 10.4 °F - 6.8 °F 85% 29.87 in 0.8 mi Calm Calm - 0.00 in Snow Light Snow
3:53 PM 10.9 °F - 6.1 °F 81% 29.95 in 1.0 mi Calm Calm - 0.00 in Snow Light Snow
4:27 PM 10.4 °F - 6.8 °F 85% 29.87 in 2.5 mi Calm Calm - 0.00 in Snow Light Snow
4:30 PM 10.4 °F - 6.8 °F 85% 29.87 in 3.0 mi Calm Calm - 0.00 in Snow Light Snow
4:44 PM 10.4 °F - 6.8 °F 85% 29.87 in 2.5 mi Calm Calm - 0.00 in Snow Light Snow
4:53 PM 10.9 °F - 5.0 °F 77% 29.96 in 2.5 mi Calm Calm - 0.00 in Snow Light Snow
5:51 PM 10.4 °F - 6.8 °F 85% 29.88 in 1.5 mi Calm Calm - 0.00 in Snow Light Snow
5:53 PM 10.9 °F - 6.1 °F 81% 29.97 in 1.5 mi Calm Calm - 0.00 in Snow Light Snow
6:10 PM 10.4 °F - 5.0 °F 79% 29.88 in 2.5 mi Calm Calm - 0.00 in Snow Light Snow
6:19 PM 10.4 °F - 6.8 °F 85% 29.89 in 3.0 mi Calm Calm - 0.00 in Snow Light Snow
6:39 PM 10.4 °F -0.4 °F 6.8 °F 85% 29.89 in 2.5 mi West 6.9 mph - 0.00 in Snow Light Snow
6:53 PM 10.9 °F -0.8 °F 6.1 °F 81% 29.98 in 2.5 mi WNW 8.1 mph - 0.00 in Snow Light Snow
7:14 PM 10.4 °F -3.3 °F 6.8 °F 85% 29.90 in 1.8 mi WNW 10.4 mph - 0.00 in Snow Light Snow
7:22 PM 10.4 °F -2.4 °F 5.0 °F 79% 29.90 in 2.5 mi WNW 9.2 mph - 0.00 in Snow Light Snow
7:29 PM 10.4 °F -4.1 °F 5.0 °F 79% 29.90 in 3.0 mi WNW 11.5 mph - 0.00 in Snow Light Snow
7:53 PM 8.1 °F -5.3 °F 3.0 °F 80% 30.00 in 4.0 mi WNW 9.2 mph - 0.00 in Snow Light Snow
8:15 PM 6.8 °F -5.9 °F 1.4 °F 79% 29.91 in 4.0 mi West 8.1 mph - 0.00 in   Overcast
8:25 PM 5.0 °F -6.9 °F 1.4 °F 85% 29.91 in 4.0 mi West 6.9 mph - 0.00 in Snow Light Snow
8:45 PM 8.6 °F -3.7 °F 3.2 °F 79% 29.92 in 2.0 mi West 8.1 mph - 0.00 in Snow Light Snow
8:53 PM 8.1 °F -3.2 °F 3.9 °F 83% 30.01 in 1.8 mi West 6.9 mph - 0.00 in Snow Light Snow
9:02 PM 6.8 °F -5.9 °F 3.2 °F 85% 29.91 in 2.5 mi WNW 8.1 mph - 0.00 in Snow Light Snow
9:21 PM 5.0 °F -6.9 °F 1.4 °F 85% 29.92 in 2.5 mi WNW 6.9 mph - 0.00 in Snow Light Snow
9:29 PM 5.0 °F -8.1 °F -0.4 °F 78% 29.92 in 3.0 mi WNW 8.1 mph - 0.00 in Snow Light Snow
9:43 PM 6.8 °F -6.9 °F 3.2 °F 85% 29.93 in 2.5 mi WNW 9.2 mph - 0.00 in Snow Light Snow
9:53 PM 6.1 °F -7.8 °F 1.9 °F 83% 30.02 in 3.0 mi WNW 9.2 mph - 0.00 in Snow Light Snow
10:22 PM 6.8 °F -8.6 °F 1.4 °F 79% 29.94 in 3.0 mi NW 11.5 mph - 0.00 in   Mostly Cloudy
10:33 PM 5.0 °F -10.8 °F 1.4 °F 85% 29.94 in 2.0 mi NW 11.5 mph - 0.00 in   Overcast
10:43 PM 6.8 °F -8.6 °F 3.2 °F 85% 29.94 in 4.0 mi NW 11.5 mph - 0.00 in Snow Light Snow
10:53 PM 9.0 °F -6.6 °F 5.0 °F 84% 30.03 in 2.5 mi NW 12.7 mph - 0.00 in Snow Light Snow
11:16 PM 8.6 °F -5.5 °F 5.0 °F 85% 29.95 in 3.0 mi WNW 10.4 mph - 0.00 in Snow Light Snow
11:51 PM 10.4 °F -3.3 °F 5.0 °F 79% 29.96 in 4.0 mi NNW 10.4 mph - 0.00 in Snow Light Snow
11:53 PM 10.0 °F -5.9 °F 5.0 °F 80% 30.04 in 4.0 mi NNW 13.8 mph - 0.00 in Snow Light Snow